Showing default

YUNHAI 2-1F, 43915

Orbit data source: Space-Track

YUNHAI 2-1F, 43915 is a payload satellite owned by CASC (CN) in LEO that was launched on Sat, 29 Dec 2018 UTC via a CHANG ZHENG 2D/YZ-3 launch vehicle from the Jiuquan Satellite Launch Center, China (JSC). Payload-class satellites include a variety of spacecraft equipped with specific instruments for various scientific and technological missions. These include communications satellites like Starlink; space stations such as the ISS; scientific satellites like the Hubble; Earth observation satellites from companies like Planet Labs, Umbra, and HawkEye 360; GPS; miniature CubeSats for education and research; and military/defense satellites.

Loading next visibility...
Identifier
43915, 2018-112G
Orbit
LEO
Country
Flag of CNCN / PRC
Related business
Manufacturer
DFH Shenzhen
Mission
Operational Defense Meteo Radio Occ.
Bus & Motor
YH-2, Unknown motor
Mass
~100 kg wet, ~100 kg dry
Launch date (UTC)
2018-12-29 (7 years ago)
Launch vehicle
CHANG ZHENG 2D/YZ-3
Launch site
Jiuquan Satellite Launch Center, China (JSC)
Object type
Payload
Rocket body
Debris
Shape & HBR
Box + 2 Pan, 0.5 m
Radar Cross Section
0.166 m², Large (>1 m²)

Expand to show TLE details & history
Last TLE update: 7 hours ago

TLE from 7 hours ago
0 YUNHAI 2-1F
1 43915U 18112G   26035.16189731  .00000072  00000-0  91617-4 0  9994
2 43915  50.0114  72.2966 0007462 221.2163 138.8189 14.28963650369283
Epoch: 2026-02-04T03:53Z
TLE epoch observation values (Epoch: 2026-02-04T03:53:07.927Z)
Latitude
-0.00006°
Longitude
-120.31892°
Altitude
799.759 km
Speed
7.453 km/s
True Right ascension
04h 49m 11s
True Declination
0° 00' 00"
Sunlit
Object was in daylight at epoch
Visualization orbit readout
Latitude
Unknown
Longitude
Unknown
Altitude
Unknown
Speed
Unknown
Apparent Right ascension
Unknown
Apparent Declination
Unknown
Sunlit
N/A
Visualization observer readout
Local Sidereal Time
12:24:04
Azimuth
Unknown
Elevation
Unknown
Doppler factor
Unknown
Orbital elements
Apogee altitude
801.288 km
Perigee altitude
790.582 km
Semi-major axis
7,174.072 km
Eccentricity
0.00075
Inclination
50.0114°
RAAN
72.2966°
Arg. of periapsis
221.2163°
True anomaly
138.87516°
Mean anomaly
138.8189°
Eccentric anomaly
138.84704°
Mean motion
3.57186 °/min
Orbital period
100.79 mins
BSTAR
0.000091617
Loading maneuver chart data...
Computing Atmospheric mass density...
Loading historical data...
Loading historical data...
Loading historical data...
Loading historical data...
Loading historical data...
Loading historical data...
Loading historical data...

Documentation

Showing up to 5 results
|